Santa Ana, CA

12:45 AM PDT on October 19, 2017 (GMT -0700)
John Wayne-Orange County

Weather History for KSNA - May, 2012

Change the Weather History Date:

Wednesday, May 2, 2012

  Actual Average Record
Temperature  
Mean Temperature 63 °F 64 °F  
Max Temperature 68 °F 71 °F 98 °F (2004)
Min Temperature 58 °F 56 °F 52 °F (2002)
Degree Days  
Heating Degree Days 2 2  
Month to date heating degree days 6 5  
Since 1 July heating degree days 1090 1212  
Cooling Degree Days 0 1  
Month to date cooling degree days 0 2  
Year to date cooling degree days 32 31  
Growing Degree Days 12 (Base 50)    
Moisture  
Dew Point 53 °F    
Average Humidity 75    
Maximum Humidity 86    
Minimum Humidity 63    
Precipitation  
Precipitation 0.00 in 0.02 in 0.25 in (2003)
Month to date precipitation 0.01 0.04  
Year to date precipitation 3.87 8.69  
Since 1 July precipitation 6.32  
Snow  
Snow 0.00 in - - ()
Month to date snowfall 0.0  
Year to date snowfall 0.0  
Snow Depth 0.00 in    
Sea Level Pressure  
Sea Level Pressure 29.94 in    
Wind  
Wind Speed 6 mph (South)    
Max Wind Speed 14 mph    
Max Gust Speed 20 mph    
Visibility 10 miles    
Events      
T = Trace of Precipitation, MM = Missing Value Source: NWS Daily Summary

Daily Weather History Graph

Daily Weather History Graph

Search for Another Location

Airport or City:

Trip Planner

Search our weather history database for the weather conditions in past years. The results will help you decide how hot, cold, wet, or windy it might be!

Date:

Astronomy

May. 02, 2012 Rise Set
Actual Time 6:01 AM PDT 7:35 PM PDT
Civil Twilight 5:34 AM PDT 8:02 PM PDT
Nautical Twilight 5:02 AM PDT 8:34 PM PDT
Astronomical Twilight 4:29 AM PDT 9:08 PM PDT
Moon 4:03 PM PDT (5/2) 3:22 AM PDT (5/2)
Length of Visible Light 14h 28m
Length of Day
13h 34m
Waxing Gibbous, 84% of the Moon is Illuminated
May 2
Waxing Gibbous
May 5
Full
May 12
Last Quarter
May 20
New
May 28
First Quarter

Hourly Weather History & Observations

Time (PDT) Temp. Dew Point Humidity Pressure Visibility Wind Dir Wind Speed Gust Speed Precip Events Conditions
12:14 AM 60.8 °F 55.4 °F 82% 29.91 in 10.0 mi Calm Calm - N/A   Overcast
12:33 AM 59.0 °F 55.4 °F 88% 29.91 in 10.0 mi Calm Calm - N/A   Overcast
12:53 AM 59.0 °F 54.0 °F 83% 29.91 in 10.0 mi Calm Calm - N/A   Overcast
1:53 AM 60.1 °F 54.0 °F 80% 29.90 in 10.0 mi South 3.5 mph - N/A   Overcast
2:53 AM 60.1 °F 54.0 °F 80% 29.90 in 10.0 mi SE 3.5 mph - N/A   Overcast
3:53 AM 59.0 °F 53.1 °F 81% 29.91 in 10.0 mi South 8.1 mph - N/A   Overcast
4:53 AM 57.9 °F 53.1 °F 84% 29.90 in 10.0 mi South 5.8 mph - N/A   Overcast
5:53 AM 59.0 °F 53.1 °F 81% 29.91 in 10.0 mi South 3.5 mph - N/A   Overcast
6:53 AM 59.0 °F 53.1 °F 81% 29.93 in 10.0 mi ESE 3.5 mph - N/A   Overcast
7:25 AM 60.8 °F 53.6 °F 77% 29.93 in 10.0 mi Variable 5.8 mph - N/A   Overcast
7:53 AM 60.1 °F 53.1 °F 78% 29.94 in 10.0 mi SE 3.5 mph - N/A   Overcast
8:53 AM 62.1 °F 52.0 °F 70% 29.95 in 10.0 mi SSE 5.8 mph - N/A   Overcast
9:02 AM 62.6 °F 51.8 °F 68% 29.95 in 10.0 mi South 5.8 mph - N/A   Overcast
9:20 AM 62.6 °F 51.8 °F 68% 29.96 in 10.0 mi SSW 8.1 mph - N/A   Overcast
9:53 AM 62.1 °F 52.0 °F 70% 29.96 in 10.0 mi South 6.9 mph - N/A   Overcast
10:53 AM 64.0 °F 51.1 °F 63% 29.97 in 10.0 mi South 10.4 mph - N/A   Overcast
11:53 AM 64.0 °F 52.0 °F 65% 29.97 in 10.0 mi South 10.4 mph - N/A   Overcast
12:53 PM 64.0 °F 53.1 °F 67% 29.96 in 10.0 mi SSW 8.1 mph 16.1 mph N/A   Mostly Cloudy
1:53 PM 66.9 °F 54.0 °F 63% 29.96 in 10.0 mi South 8.1 mph - N/A   Mostly Cloudy
2:53 PM 66.9 °F 53.1 °F 61% 29.96 in 10.0 mi SSW 10.4 mph - N/A   Mostly Cloudy
3:53 PM 64.0 °F 53.1 °F 67% 29.95 in 10.0 mi South 10.4 mph - N/A   Mostly Cloudy
4:53 PM 63.0 °F 52.0 °F 67% 29.94 in 10.0 mi SSW 8.1 mph - N/A   Mostly Cloudy
5:53 PM 62.6 °F 51.8 °F 68% 29.93 in 10.0 mi SW 6.9 mph - N/A   Mostly Cloudy
6:53 PM 63.0 °F 53.1 °F 70% 29.94 in 10.0 mi SW 6.9 mph - N/A   Mostly Cloudy
7:53 PM 61.0 °F 53.1 °F 75% 29.94 in 10.0 mi WSW 4.6 mph - N/A   Mostly Cloudy
8:53 PM 61.0 °F 52.0 °F 72% 29.96 in 10.0 mi WSW 3.5 mph - N/A   Mostly Cloudy
9:53 PM 61.0 °F 53.1 °F 75% 29.98 in 10.0 mi West 3.5 mph - N/A   Mostly Cloudy
10:53 PM 61.0 °F 53.1 °F 75% 29.98 in 8.0 mi Calm Calm - N/A   Mostly Cloudy
11:53 PM 60.1 °F 53.1 °F 78% 29.98 in 10.0 mi SSW 4.6 mph - N/A   Overcast